Printer-friendly version

IAU Minor Planet Center

Minor Planet Center

MPEC 2005-T82 : 2005 NB7

The following Minor Planet Electronic Circular may be linked-to from your own Web pages, but must not otherwise be redistributed electronically.


Read MPEC 2005-T81 Read MPEC 2005-T83


M.P.E.C. 2005-T82                                Issued 2005 Oct. 12, 11:52 UT

     The Minor Planet Electronic Circulars contain information on unusual
         minor planets and routine data on comets.  They are published
   on behalf of Commission 20 of the International Astronomical Union by the
          Minor Planet Center, Smithsonian Astrophysical Observatory,
                          Cambridge, MA 02138, U.S.A.

                  Supported in part by the Brinson Foundation
             Prepared using the Tamkin Foundation Computer Network

                              MPC@CFA.HARVARD.EDU
          URL http://cfa-www.harvard.edu/iau/mpc.html  ISSN 1523-6714

                                   2005 NB7

                           Revision to MPEC 2005-N32

Additional Observations:
     K05N07B  C2002 01 09.14040003 23 52.536+00 23 50.06         21.43V ET082645
     K05N07B  C2002 01 09.14387203 23 52.432+00 23 50.28         22.34  ET082645
     K05N07B  C2002 01 14.15179003 22 13.058+00 34 15.29         21.42V ET082645
     K05N07B  C2002 01 14.15526203 22 13.006+00 34 15.96         22.21  ET082645

Observer details:

645 Apache Point--Sloan Digitial Sky Survey.  Observers Sloan Digital Sky
    Survey Collaboration.

Orbital elements:
2005 NB7                                                             PHA 0.005A
Epoch 2005 Aug. 18.0 TT = JDT 2453600.5                 MPC
M  36.36538              (2000.0)            P               Q
n   0.33781685     Peri.  348.07803     -0.98998932     +0.12095467
a   2.0418093      Node   199.32644     -0.10455122     -0.97465918
e   0.5163543      Incl.   12.69681     -0.09481664     -0.18817398
P   2.92           H   18.6           G   0.15           U   2
Residuals in seconds of arc
020109 645  0.0   0.0     050706 703  0.5+  0.6+    050710 J95  0.0   0.4+
020109 645  0.0   0.1-    050706 703  0.8-  0.4+    050710 J95  0.6+  0.3-
020114 645  0.0   0.0     050706 703  0.5-  1.2+    050715 448  1.4-  1.0-
020114 645  0.0   0.1+    050706 651  0.4-  0.2-    050715 448  0.3-  0.4-
050705 703  0.4+  0.9-    050706 651  1.2+  0.9-    050715 448  0.2-  0.6-
050705 703  0.1+  0.1-    050706 651  0.6+  0.0     050721 448  0.1+  1.0-
050705 703  0.3+  0.0     050706 413  0.1-  0.2-    050721 448 (1.6-  2.3-)
050705 G96  0.0   0.2+    050706 413  0.2-  0.3-    050725 734  0.4-  1.2-
050705 G96  0.1-  0.3+    050707 703  0.1-  0.1+    050725 734  0.3+  0.5+
050705 G96  0.3-  0.1-    050707 703  0.1-  0.1-    050728 734  0.0   0.3+
050705 G96  0.2-  0.0     050707 703  0.2+  0.3+    050728 734  0.6+  0.0
050705 204  0.1-  0.5+    050707 703  0.1-  0.5-    050728 734  0.3-  1.1+
050706 734  0.7+  0.5-    050707 649  0.1-  0.3-    050829 291  0.4+  0.4+
050706 734  1.0+  0.3+    050707 649  0.1-  0.2+    050829 291  0.0   0.4+
050706 703  1.6-  1.4+    050707 649  0.0   0.1-    050829 291  0.1-  0.5+

Timothy B. Spahr             (C) Copyright 2005 MPC           M.P.E.C. 2005-T82

Read MPEC 2005-T81 Read MPEC 2005-T83


Our Web policy. Index to the CBAT/MPC/ICQ pages.


Valid HTML 4.01!